Location: Unspecified
(0.0000°N, 0.0000°E)
Time: 14:46:46
(UTC+00:00)

Vanguard 1 Rocket - Visible Passes

Search period start: 29 July 2014 00:00
Search period end: 08 August 2014 00:00
Orbit: 651 x 4229 km, 34.3° (Epoch: 23 July)

Date Brightness Start Highest point End Pass type
(mag) Time Alt. Az. Time Alt. Az. Time Alt. Az.
29 Jul 11.2 01:02:30 10° NNW 01:04:03 10° NNW 01:05:31 10° NNW visible
29 Jul 10.6 18:18:48 10° SW 18:42:13 72° SE 19:06:55 10° ENE visible
29 Jul 10.8 20:50:50 10° WSW 21:16:07 55° NW 21:35:34 10° NE visible
29 Jul 11.3 23:35:43 10° WNW 23:49:34 19° NNW 23:59:37 10° N visible
30 Jul 10.7 19:35:48 10° WSW 20:01:03 75° NW 20:23:50 10° NE visible
30 Jul 11.2 22:14:02 10° W 22:34:52 31° NW 22:49:52 10° NNE visible
31 Jul 10.7 18:22:30 10° SW 18:45:46 84° SE 19:10:56 10° NE visible
31 Jul 11.1 20:55:40 10° WSW 21:19:55 46° NW 21:39:06 10° NNE visible
31 Jul 11.3 23:43:22 10° WNW 23:54:39 16° NNW 00:03:14 10° N visible
01 Aug 9.8 04:55:58 10° NNW 04:59:35 16° NNE 05:02:32 10° ENE visible
01 Aug 10.9 19:40:02 10° WSW 20:04:39 63° NW 20:27:27 10° NE visible
01 Aug 11.4 22:20:29 10° W 22:39:25 26° NNW 22:53:27 10° NNE visible
02 Aug 10.4 03:47:16 10° N 03:47:41 10° NNE 03:48:06 10° NNE visible
02 Aug 10.8 18:26:23 10° SW 18:49:17 84° NW 19:14:43 10° NE visible
02 Aug 11.3 21:00:59 10° W 21:23:59 38° NW 21:42:38 10° NNE visible
02 Aug 11.3 23:51:06 10° NW 00:00:06 14° NNW 00:07:15 10° N visible
03 Aug 9.1 04:58:42 10° NNW 05:04:11 26° NNE 05:08:10 10° E visible
03 Aug 11.1 19:44:35 10° WSW 20:08:26 53° NW 20:30:58 10° NE visible
03 Aug 11.4 22:27:29 10° WNW 22:44:24 22° NNW 22:57:14 10° NNE visible
04 Aug 10.0 03:47:42 10° NNW 03:52:37 16° NNE 03:56:19 10° ENE visible
04 Aug 10.9 18:30:29 10° WSW 18:52:54 72° NW 19:18:20 10° NE visible
04 Aug 11.5 21:06:51 10° W 21:28:26 32° NNW 21:46:14 10° NNE visible
04 Aug 11.3 23:58:09 10° NW 00:05:50 13° NNW 00:12:03 10° NNE visible
05 Aug 10.6 02:36:05 10° NNW 02:40:08 13° N 02:43:27 10° NE visible
05 Aug 8.2 05:02:01 10° NW 05:08:38 45° NNE 05:13:05 10° ESE visible
05 Aug 11.3 19:49:33 10° W 20:12:28 45° NW 20:34:27 10° NE visible
05 Aug 11.4 22:34:49 10° WNW 22:49:47 19° NNW 23:01:21 10° NNE visible
06 Aug 11.0 01:22:12 10° NNW 01:26:34 12° N 01:30:13 10° NNE visible
06 Aug 9.5 03:50:21 10° NNW 03:57:24 25° NNE 04:02:04 10° E visible
06 Aug 11.1 18:34:52 10° WSW 18:56:41 61° NW 19:21:49 10° NE visible
06 Aug 11.5 21:13:15 10° WNW 21:33:18 27° NNW 21:49:59 10° NNE visible
07 Aug 11.2 00:03:52 10° NNW 00:11:40 13° N 00:17:54 10° NNE visible
07 Aug 10.3 02:38:07 10° NNW 02:45:15 18° NNE 02:50:13 10° ENE visible
07 Aug 7.3 05:05:42 10° NW 05:12:55 78° NE 05:17:33 10° ESE visible
07 Aug 11.5 19:54:57 10° W 20:16:50 38° NNW 20:37:59 10° NNE visible
07 Aug 11.4 22:42:01 10° NW 22:55:32 17° NNW 23:06:02 10° NNE visible
